Location: Llanfihangel-Ystrad
(52.1833°N, 4.1667°W)
Time: 17:03:10
(UTC+00:00)

STARLINK-1190 - Pass Details

Date: 17 February 2020
Orbit: 553 x 556 km, 53.0° (Epoch: 30 March)

Event Time Altitude Azimuth Distance (km) Brightness Sun altitude
Exits shadow 05:01:16 83° 19° (NNE) 567 3.6 -23.2°
Drops below altitude 10° 05:05:24 10° 80° (E) 1,845 7.4 -22.6°
Sets 05:07:39 0° 82° (E) 2,742 8.7 -22.3°
